Time,TemperatureF,DewpointF,PressureIn,WindDirection,WindDirectionDegrees,WindSpeedMPH,WindSpeedGustMPH,Humidity,HourlyPrecipIn,Conditions,Clouds,dailyrainin,SolarRadiationWatts/m^2,SoftwareType,DateUTC
2013-01-10 03:30:00,35.5,25.3,30.12,WNW,292,11.0,30.0,66,0.00,,CLR,0.00,0.00,VWS V14.01,2013-01-10 08:30:00,
2013-01-10 03:49:00,35.1,25.3,30.13,NW,318,8.0,23.0,67,0.00,,CLR,0.00,0.00,VWS V14.01,2013-01-10 08:49:00,
2013-01-10 03:59:00,35.0,25.2,30.14,West,263,9.0,28.0,67,0.00,,CLR,0.00,0.00,VWS V14.01,2013-01-10 08:59:00,
2013-01-10 04:09:00,34.8,25.3,30.15,NW,306,7.0,17.0,68,0.00,,CLR,0.00,0.00,VWS V14.01,2013-01-10 09:09:00,
2013-01-10 04:19:00,34.4,25.0,30.16,NW,304,8.0,27.0,68,0.00,,CLR,0.00,0.00,VWS V14.01,2013-01-10 09:19:00,
2013-01-10 04:29:00,34.2,25.1,30.16,NW,310,11.0,15.0,69,0.00,,CLR,0.00,0.00,VWS V14.01,2013-01-10 09:29:00,
2013-01-10 04:39:00,34.1,25.0,30.17,NW,311,9.0,15.0,69,0.00,,CLR,0.00,0.00,VWS V14.01,2013-01-10 09:39:00,
2013-01-10 04:49:00,34.1,24.7,30.17,NW,306,10.0,18.0,68,0.00,,CLR,0.00,0.00,VWS V14.01,2013-01-10 09:49:00,
2013-01-10 04:59:00,34.0,24.6,30.18,NW,307,3.0,16.0,68,0.00,,CLR,0.00,0.00,VWS V14.01,2013-01-10 09:59:00,
2013-01-10 05:09:00,34.0,24.2,30.18,NNW,334,11.0,17.0,67,0.00,,CLR,0.00,0.00,VWS V14.01,2013-01-10 10:09:00,
2013-01-10 05:19:00,34.2,23.3,30.19,NW,315,7.0,25.0,64,0.00,,CLR,0.00,0.00,VWS V14.01,2013-01-10 10:19:00,
2013-01-10 05:29:00,33.9,23.0,30.19,NW,306,19.0,20.0,64,0.00,,CLR,0.00,0.00,VWS V14.01,2013-01-10 10:29:00,
2013-01-10 05:39:00,33.7,24.3,30.19,NW,307,11.0,21.0,68,0.00,,CLR,0.00,0.00,VWS V14.01,2013-01-10 10:39:00,
2013-01-10 05:49:00,33.7,22.1,30.19,NW,321,12.0,23.0,62,0.00,,CLR,0.00,0.00,VWS V14.01,2013-01-10 10:49:00,
2013-01-10 05:59:00,33.6,22.0,30.20,NW,314,10.0,20.0,62,0.00,,CLR,0.00,0.00,VWS V14.01,2013-01-10 10:59:00,
2013-01-10 06:09:00,33.5,21.9,30.21,West,277,6.0,23.0,62,0.00,,CLR,0.00,0.00,VWS V14.01,2013-01-10 11:09:00,
2013-01-10 06:19:00,33.3,21.7,30.22,WNW,293,7.0,18.0,62,0.00,,CLR,0.00,0.00,VWS V14.01,2013-01-10 11:19:00,
2013-01-10 06:29:00,33.2,21.2,30.23,NW,322,2.0,13.0,61,0.00,,CLR,0.00,0.00,VWS V14.01,2013-01-10 11:29:00,
2013-01-10 06:39:00,33.2,21.2,30.23,NW,325,8.0,16.0,61,0.00,,CLR,0.00,0.00,VWS V14.01,2013-01-10 11:39:00,
2013-01-10 06:49:00,33.4,21.0,30.23,WNW,294,5.0,22.0,60,0.00,,CLR,0.00,0.00,VWS V14.01,2013-01-10 11:49:00,
2013-01-10 06:59:00,33.0,20.6,30.25,West,272,5.0,15.0,60,0.00,,CLR,0.00,0.00,VWS V14.01,2013-01-10 11:59:00,
2013-01-10 07:09:00,32.9,20.5,30.26,WNW,296,6.0,12.0,60,0.00,,CLR,0.00,0.00,VWS V14.01,2013-01-10 12:09:00,
2013-01-10 07:19:00,32.6,20.3,30.27,West,279,4.0,18.0,60,0.00,,CLR,0.00,5.00,VWS V14.01,2013-01-10 12:19:00,
2013-01-10 07:29:00,32.5,20.2,30.27,WNW,290,4.0,14.0,60,0.00,,CLR,0.00,11.00,VWS V14.01,2013-01-10 12:29:00,
2013-01-10 07:39:00,32.5,20.2,30.28,WNW,294,3.0,12.0,60,0.00,,CLR,0.00,16.00,VWS V14.01,2013-01-10 12:39:00,
2013-01-10 07:49:00,32.5,20.2,30.28,WNW,296,3.0,11.0,60,0.00,,CLR,0.00,35.00,VWS V14.01,2013-01-10 12:49:00,
2013-01-10 07:59:00,32.9,20.2,30.29,WNW,288,4.0,11.0,59,0.00,,CLR,0.00,60.00,VWS V14.01,2013-01-10 12:59:00,
2013-01-10 08:09:00,33.2,20.4,30.29,NW,311,8.0,12.0,59,0.00,,CLR,0.00,62.00,VWS V14.01,2013-01-10 13:09:00,
2013-01-10 08:19:00,33.4,20.2,30.30,WNW,302,10.0,15.0,58,0.00,,CLR,0.00,91.00,VWS V14.01,2013-01-10 13:19:00,
2013-01-10 08:29:00,33.7,20.5,30.31,West,276,13.0,14.0,58,0.00,,CLR,0.00,114.00,VWS V14.01,2013-01-10 13:29:00,
2013-01-10 08:39:00,33.8,21.0,30.30,NW,313,8.0,21.0,59,0.00,,CLR,0.00,132.00,VWS V14.01,2013-01-10 13:39:00,
2013-01-10 08:49:00,34.1,20.9,30.30,WNW,290,15.0,21.0,58,0.00,,CLR,0.00,130.00,VWS V14.01,2013-01-10 13:49:00,
2013-01-10 08:59:00,34.4,20.8,30.30,WNW,296,10.0,30.0,57,0.00,,CLR,0.00,160.00,VWS V14.01,2013-01-10 13:59:00,
2013-01-10 09:09:00,34.4,21.2,30.30,West,280,7.0,22.0,58,0.00,,CLR,0.00,160.00,VWS V14.01,2013-01-10 14:09:00,
2013-01-10 09:19:00,34.7,21.0,30.30,NW,308,8.0,19.0,57,0.00,,CLR,0.00,167.00,VWS V14.01,2013-01-10 14:19:00,
2013-01-10 09:29:00,34.8,21.5,30.32,NW,313,9.0,18.0,58,0.00,,CLR,0.00,234.00,VWS V14.01,2013-01-10 14:29:00,
2013-01-10 09:39:00,35.0,21.3,30.32,NW,324,8.0,21.0,57,0.00,,CLR,0.00,290.00,VWS V14.01,2013-01-10 14:39:00,
2013-01-10 09:49:00,35.5,21.8,30.32,NW,315,12.0,16.0,57,0.00,,CLR,0.00,315.00,VWS V14.01,2013-01-10 14:49:00,
2013-01-10 09:59:00,35.7,22.0,30.32,WNW,292,9.0,23.0,57,0.00,,CLR,0.00,345.00,VWS V14.01,2013-01-10 14:59:00,
2013-01-10 10:09:00,35.7,22.0,30.32,NW,313,8.0,25.0,57,0.00,,CLR,0.00,369.00,VWS V14.01,2013-01-10 15:09:00,
2013-01-10 10:19:00,35.7,22.0,30.33,NW,307,11.0,29.0,57,0.00,,CLR,0.00,380.00,VWS V14.01,2013-01-10 15:19:00,
2013-01-10 10:29:00,36.2,22.5,30.33,WNW,295,5.0,22.0,57,0.00,,CLR,0.00,394.00,VWS V14.01,2013-01-10 15:29:00,
2013-01-10 10:39:00,36.1,21.9,30.31,WNW,296,10.0,23.0,56,0.00,,CLR,0.00,404.00,VWS V14.01,2013-01-10 15:39:00,
2013-01-10 10:49:00,36.2,22.0,30.31,NW,304,11.0,28.0,56,0.00,,FEW040,0.00,413.00,VWS V14.01,2013-01-10 15:49:00,
2013-01-10 10:59:00,36.6,22.4,30.30,WNW,290,11.0,21.0,56,0.00,,FEW040,0.00,420.00,VWS V14.01,2013-01-10 15:59:00,
2013-01-10 11:09:00,36.5,21.9,30.31,WNW,296,8.0,22.0,55,0.00,,FEW040,0.00,404.00,VWS V14.01,2013-01-10 16:09:00,
2013-01-10 11:19:00,37.0,22.4,30.31,NW,309,6.0,20.0,55,0.00,,FEW040,0.00,376.00,VWS V14.01,2013-01-10 16:19:00,
2013-01-10 11:29:00,36.9,22.7,30.32,NW,304,8.0,25.0,56,0.00,,FEW040,0.00,355.00,VWS V14.01,2013-01-10 16:29:00,
2013-01-10 11:39:00,37.0,22.4,30.32,WNW,291,11.0,26.0,55,0.00,,FEW040,0.00,357.00,VWS V14.01,2013-01-10 16:39:00,
2013-01-10 11:49:00,36.9,22.7,30.32,NW,315,8.0,23.0,56,0.00,,FEW040,0.00,348.00,VWS V14.01,2013-01-10 16:49:00,
2013-01-10 11:59:00,37.1,22.9,30.32,NW,313,8.0,20.0,56,0.00,,FEW040,0.00,232.00,VWS V14.01,2013-01-10 16:59:00,
2013-01-10 12:09:00,37.2,22.5,30.31,WNW,298,12.0,24.0,55,0.00,,FEW040,0.00,279.00,VWS V14.01,2013-01-10 17:09:00,
2013-01-10 12:19:00,37.4,22.7,30.31,WNW,302,9.0,22.0,55,0.00,,FEW040,0.00,376.00,VWS V14.01,2013-01-10 17:19:00,
2013-01-10 12:29:00,37.5,22.8,30.32,NW,308,8.0,18.0,55,0.00,,FEW040,0.00,432.00,VWS V14.01,2013-01-10 17:29:00,
2013-01-10 12:39:00,37.2,23.0,30.32,NW,309,12.0,23.0,56,0.00,,FEW040,0.00,425.00,VWS V14.01,2013-01-10 17:39:00,
2013-01-10 12:49:00,36.8,22.6,30.32,NNW,333,7.0,28.0,56,0.00,,FEW040,0.00,420.00,VWS V14.01,2013-01-10 17:49:00,
2013-01-10 12:59:00,36.8,22.6,30.32,NW,321,20.0,27.0,56,0.00,,FEW040,0.00,413.00,VWS V14.01,2013-01-10 17:59:00,
2013-01-10 13:09:00,37.1,22.4,30.32,NW,304,17.0,26.0,55,0.00,,FEW040,0.00,403.00,VWS V14.01,2013-01-10 18:09:00,
2013-01-10 13:19:00,37.3,22.6,30.33,North,355,14.0,22.0,55,0.00,,FEW040,0.00,390.00,VWS V14.01,2013-01-10 18:19:00,
2013-01-10 13:29:00,37.1,22.4,30.33,NW,317,16.0,25.0,55,0.00,,FEW040,0.00,378.00,VWS V14.01,2013-01-10 18:29:00,
2013-01-10 13:39:00,37.1,22.4,30.34,NW,306,16.0,22.0,55,0.00,,FEW040,0.00,364.00,VWS V14.01,2013-01-10 18:39:00,
2013-01-10 13:49:00,37.2,22.5,30.34,NNW,333,15.0,24.0,55,0.00,,FEW040,0.00,348.00,VWS V14.01,2013-01-10 18:49:00,
2013-01-10 13:59:00,37.1,22.9,30.35,NW,313,21.0,22.0,56,0.00,,FEW040,0.00,332.00,VWS V14.01,2013-01-10 18:59:00,
2013-01-10 14:09:00,37.2,22.5,30.34,WNW,296,6.0,24.0,55,0.00,,FEW040,0.00,315.00,VWS V14.01,2013-01-10 19:09:00,
2013-01-10 14:19:00,37.5,22.4,30.35,NW,306,4.0,20.0,54,0.00,,FEW040,0.00,292.00,VWS V14.01,2013-01-10 19:19:00,
2013-01-10 14:29:00,37.4,22.3,30.36,NW,308,5.0,18.0,54,0.00,,FEW040,0.00,264.00,VWS V14.01,2013-01-10 19:29:00,
2013-01-10 14:39:00,37.1,22.4,30.36,NW,323,8.0,19.0,55,0.00,,FEW040,0.00,236.00,VWS V14.01,2013-01-10 19:39:00,
2013-01-10 14:49:00,37.4,22.3,30.36,WNW,300,6.0,15.0,54,0.00,,FEW045,0.00,206.00,VWS V14.01,2013-01-10 19:49:00,
2013-01-10 14:59:00,37.3,22.2,30.36,WNW,284,3.0,14.0,54,0.00,,FEW045,0.00,178.00,VWS V14.01,2013-01-10 19:59:00,
2013-01-10 15:09:00,37.2,22.1,30.37,NNW,330,11.0,16.0,54,0.00,,FEW045,0.00,148.00,VWS V14.01,2013-01-10 20:09:00,
2013-01-10 15:19:00,37.0,21.9,30.38,NW,326,9.0,16.0,54,0.00,,FEW045,0.00,120.00,VWS V14.01,2013-01-10 20:19:00,
2013-01-10 15:29:00,36.7,22.1,30.38,WNW,288,8.0,19.0,55,0.00,,FEW045,0.00,91.00,VWS V14.01,2013-01-10 20:29:00,
2013-01-10 15:39:00,36.5,22.3,30.39,WNW,299,9.0,15.0,56,0.00,,FEW045,0.00,56.00,VWS V14.01,2013-01-10 20:39:00,
2013-01-10 15:49:00,36.1,21.9,30.39,WNW,292,10.0,14.0,56,0.00,,FEW045,0.00,25.00,VWS V14.01,2013-01-10 20:49:00,
2013-01-10 15:59:00,35.8,21.6,30.39,NW,324,17.0,20.0,56,0.00,,CLR,0.00,16.00,VWS V14.01,2013-01-10 20:59:00,
2013-01-10 16:09:00,35.7,22.0,30.40,NW,308,9.0,21.0,57,0.00,,CLR,0.00,12.00,VWS V14.01,2013-01-10 21:09:00,
2013-01-10 16:19:00,35.4,21.7,30.40,North,355,4.0,13.0,57,0.00,,CLR,0.00,9.00,VWS V14.01,2013-01-10 21:19:00,
2013-01-10 16:29:00,35.1,21.4,30.41,NW,323,13.0,21.0,57,0.00,,CLR,0.00,5.00,VWS V14.01,2013-01-10 21:29:00,
2013-01-10 16:39:00,34.8,21.5,30.41,NW,315,9.0,18.0,58,0.00,,CLR,0.00,0.00,VWS V14.01,2013-01-10 21:39:00,
2013-01-10 16:49:00,34.4,21.6,30.42,NW,325,6.0,16.0,59,0.00,,CLR,0.00,0.00,VWS V14.01,2013-01-10 21:49:00,
2013-01-10 16:59:00,34.1,21.7,30.42,WNW,283,6.0,12.0,60,0.00,,CLR,0.00,0.00,VWS V14.01,2013-01-10 21:59:00,
2013-01-10 17:09:00,33.9,21.9,30.42,NW,320,2.0,13.0,61,0.00,,CLR,0.00,0.00,VWS V14.01,2013-01-10 22:09:00,
2013-01-10 17:19:00,33.6,22.0,30.42,NW,308,8.0,14.0,62,0.00,,CLR,0.00,0.00,VWS V14.01,2013-01-10 22:19:00,
2013-01-10 17:29:00,33.3,22.1,30.42,NW,315,8.0,15.0,63,0.00,,CLR,0.00,0.00,VWS V14.01,2013-01-10 22:29:00,
2013-01-10 17:39:00,33.3,22.1,30.42,NNW,330,9.0,19.0,63,0.00,,CLR,0.00,0.00,VWS V14.01,2013-01-10 22:39:00,
2013-01-10 17:49:00,33.3,22.1,30.43,North,350,6.0,15.0,63,0.00,,CLR,0.00,0.00,VWS V14.01,2013-01-10 22:49:00,
2013-01-10 17:59:00,32.9,22.1,30.44,NNW,342,6.0,13.0,64,0.00,,CLR,0.00,0.00,VWS V14.01,2013-01-10 22:59:00,
2013-01-10 18:09:00,32.6,21.4,30.44,North,355,6.0,6.0,63,0.00,,CLR,0.00,0.00,VWS V14.01,2013-01-10 23:09:00,
2013-01-10 18:19:00,32.4,21.6,30.45,NE,55,2.0,9.0,64,0.00,,CLR,0.00,0.00,VWS V14.01,2013-01-10 23:19:00,
2013-01-10 18:29:00,32.0,21.6,30.45,North,5,1.0,10.0,65,0.00,,CLR,0.00,0.00,VWS V14.01,2013-01-10 23:29:00,
2013-01-10 18:39:00,32.1,21.7,30.44,North,355,5.0,20.0,65,0.00,,CLR,0.00,0.00,VWS V14.01,2013-01-10 23:39:00,
2013-01-10 18:49:00,31.8,21.8,30.45,NNW,344,13.0,17.0,66,0.00,,CLR,0.00,0.00,VWS V14.01,2013-01-10 23:49:00,
2013-01-10 18:59:00,31.5,21.5,30.45,NW,304,6.0,15.0,66,0.00,,CLR,0.00,0.00,VWS V14.01,2013-01-10 23:59:00,
2013-01-10 19:09:00,31.4,21.4,30.45,NW,323,6.0,16.0,66,0.00,,CLR,0.00,0.00,VWS V14.01,2013-01-11 00:09:00,
2013-01-10 19:19:00,31.4,21.0,30.45,NNW,331,17.0,20.0,65,0.00,,CLR,0.00,0.00,VWS V14.01,2013-01-11 00:19:00,
2013-01-10 19:29:00,31.4,21.0,30.46,NNW,337,15.0,20.0,65,0.00,,CLR,0.00,0.00,VWS V14.01,2013-01-11 00:29:00,
2013-01-10 19:39:00,31.2,21.2,30.46,NW,325,11.0,16.0,66,0.00,,CLR,0.00,0.00,VWS V14.01,2013-01-11 00:39:00,
2013-01-10 19:49:00,31.1,21.1,30.46,NW,323,16.0,23.0,66,0.00,,CLR,0.00,0.00,VWS V14.01,2013-01-11 00:49:00,
2013-01-10 19:59:00,30.8,21.1,30.46,NW,322,13.0,17.0,67,0.00,,CLR,0.00,0.00,VWS V14.01,2013-01-11 00:59:00,
2013-01-10 20:09:00,30.7,21.4,30.46,NNW,327,8.0,20.0,68,0.00,,CLR,0.00,0.00,VWS V14.01,2013-01-11 01:09:00,
2013-01-10 20:19:00,30.5,21.2,30.46,NW,317,11.0,23.0,68,0.00,,CLR,0.00,0.00,VWS V14.01,2013-01-11 01:19:00,
2013-01-10 20:29:00,30.2,21.3,30.46,NW,314,21.0,21.0,69,0.00,,CLR,0.00,0.00,VWS V14.01,2013-01-11 01:29:00,
2013-01-10 20:39:00,30.0,21.4,30.46,West,279,5.0,21.0,70,0.00,,CLR,0.00,0.00,VWS V14.01,2013-01-11 01:39:00,
2013-01-10 20:49:00,30.0,21.4,30.47,NE,39,6.0,17.0,70,0.00,,CLR,0.00,0.00,VWS V14.01,2013-01-11 01:49:00,
2013-01-10 20:59:00,30.2,21.6,30.47,NNW,328,9.0,21.0,70,0.00,,CLR,0.00,0.00,VWS V14.01,2013-01-11 01:59:00,
2013-01-10 21:09:00,29.9,21.3,30.49,NW,314,14.0,18.0,70,0.00,,CLR,0.00,0.00,VWS V14.01,2013-01-11 02:09:00,
2013-01-10 21:19:00,30.1,21.5,30.49,NW,319,3.0,14.0,70,0.00,,CLR,0.00,0.00,VWS V14.01,2013-01-11 02:19:00,
2013-01-10 21:29:00,29.8,21.6,30.49,NNW,329,12.0,16.0,71,0.00,,CLR,0.00,0.00,VWS V14.01,2013-01-11 02:29:00,
2013-01-10 21:39:00,29.9,21.7,30.49,North,360,4.0,13.0,71,0.00,,CLR,0.00,0.00,VWS V14.01,2013-01-11 02:39:00,
2013-01-10 21:49:00,29.7,21.5,30.50,NW,322,9.0,10.0,71,0.00,,CLR,0.00,0.00,VWS V14.01,2013-01-11 02:49:00,
2013-01-10 21:59:00,29.7,21.5,30.50,North,355,7.0,15.0,71,0.00,,CLR,0.00,0.00,VWS V14.01,2013-01-11 02:59:00,
2013-01-10 22:09:00,29.3,21.4,30.50,NW,321,14.0,14.0,72,0.00,,CLR,0.00,0.00,VWS V14.01,2013-01-11 03:09:00,
2013-01-10 22:19:00,29.3,21.4,30.49,WNW,290,10.0,15.0,72,0.00,,CLR,0.00,0.00,VWS V14.01,2013-01-11 03:19:00,
2013-01-10 22:29:00,29.4,21.5,30.49,WNW,294,3.0,15.0,72,0.00,,CLR,0.00,0.00,VWS V14.01,2013-01-11 03:29:00,
2013-01-10 22:39:00,29.3,21.7,30.49,WNW,298,0.0,12.0,73,0.00,,CLR,0.00,0.00,VWS V14.01,2013-01-11 03:39:00,
2013-01-10 22:49:00,29.2,21.6,30.49,West,271,0.0,12.0,73,0.00,,CLR,0.00,0.00,VWS V14.01,2013-01-11 03:49:00,
2013-01-10 22:59:00,29.1,21.5,30.49,West,263,2.0,7.0,73,0.00,,CLR,0.00,0.00,VWS V14.01,2013-01-11 03:59:00,
2013-01-10 23:09:00,29.2,21.6,30.49,WNW,287,0.0,10.0,73,0.00,,CLR,0.00,0.00,VWS V14.01,2013-01-11 04:09:00,
2013-01-10 23:19:00,29.3,21.4,30.49,NNW,333,8.0,9.0,72,0.00,,CLR,0.00,0.00,VWS V14.01,2013-01-11 04:19:00,
2013-01-10 23:29:00,29.4,21.5,30.49,NW,325,6.0,10.0,72,0.00,,CLR,0.00,0.00,VWS V14.01,2013-01-11 04:29:00,
2013-01-10 23:39:00,29.6,21.4,30.49,NW,320,3.0,12.0,71,0.00,,CLR,0.00,0.00,VWS V14.01,2013-01-11 04:39:00,
2013-01-10 23:49:00,29.2,21.3,30.49,WNW,287,3.0,6.0,72,0.00,,CLR,0.00,0.00,VWS V14.01,2013-01-11 04:49:00,
2013-01-10 23:59:00,29.2,21.3,30.49,NW,324,10.0,11.0,72,0.00,,CLR,0.00,0.00,VWS V14.01,2013-01-11 04:59:00,